Skip Page Navigation
NASA JPL Caltech
NASA Logo - Jet Propulsion Laboratory + View the NASA Portal
+ Near-Earth Object (NEO) Program
Search JPL
JPL Home Earth Solar System Stars & Galaxies Technology
JPL Solar System Dynamics
BODIES ORBITS EPHEMERIDES TOOLS PHYSICAL DATA DISCOVERY FAQ SITE MAP
JPL Small-Body Database Browser
Search: [ help ]  
24832 (1995 SU5)
Classification: Main-belt Asteroid          SPK-ID: 2024832
Ephemeris | Orbit Diagram | Orbital Elements | Physical Parameters | Discovery Circumstances | Close-Approach Data ]

[ show orbit diagram ]
Orbital Elements at Epoch 2457600.5 (2016-Jul-31.0) TDB
Reference: JPL 11 (heliocentric ecliptic J2000)
 Element Value Uncertainty (1-sigma)   Units 
e .1599673460036487 7.5268e-08  
a 2.3688335863842 1.8968e-08 au
q 1.989897564446015 1.7988e-07 au
i 7.393733160476996 8.7429e-06 deg
node 203.5946491666165 3.9605e-05 deg
peri 27.99951172802904 4.4876e-05 deg
M 47.7678172095205 2.1005e-05 deg
tp 2457423.801382954332
(2016-Feb-05.30138295)
7.7035e-05 JED
period 1331.681157994433
3.65
1.5995e-05
4.379e-08
d
yr
n .2703349805911311 3.247e-09 deg/d
Q 2.747769608322385 2.2002e-08 au
  Orbit Determination Parameters
   # obs. used (total)      682  
   data-arc span      8562 days (23.44 yr)  
   first obs. used      1991-10-06  
   last obs. used      2015-03-16  
   planetary ephem.      DE431  
   SB-pert. ephem.      SB431-BIG16  
   condition code      0  
   fit RMS      .52668  
   data source      ORB  
   producer      Otto Matic  
   solution date      2015-Apr-07 17:18:39  

Additional Information
 Earth MOID = .983022 au 
 Jupiter MOID = 2.24136 au 
 T_jup = 3.518 
[ show covariance matrix ]

Ephemeris | Orbit Diagram | Orbital Elements | Physical Parameters | Discovery Circumstances | Close-Approach Data ]

Physical Parameter Table
Parameter Symbol Value Units Sigma Reference Notes
absolute magnitude H 15.2 mag n/a MPO270296  

24832 (1995 SU5)          Discovered 1995-Sep-25 by Beijing Schmidt CCD Asteroid Program at Xinglong
Reference: 20010606/Numbers.arcLast Updated: 2004-04-19

[ show close-approach data ]
Alternate Designations
 1995 SU5 = 1998 QZ80 
Ephemeris | Orbit Diagram | Orbital Elements | Physical Parameters | Discovery Circumstances | Close-Approach Data ]
ABOUT SSD CREDITS/AWARDS PRIVACY/COPYRIGHT GLOSSARY LINKS
FirstGov 2016-May-04 06:01 UT
(server date/time)  
NASA Home Page
Site Manager:   Ryan S. Park
Webmaster  Alan B. Chamberlin